Regional Weather Roundup
Issued by NWS Goodland, KS

Home | Current Version | Previous Version | Graphics & Text | Print | Product List | Glossary On
Versions: 1 2 3 4 5 6 7 8 9 10 11 12 13 14 15 16 17 18 19 20 21 22 23 24 25 26 27 28 29 30 31 32 33 34 35 36 37 38 39 40 41 42 43 44 45 46 47 48 49 50
000
ASUS43 KGLD 300608
RWRGLD

GOODLAND FORECAST AREA HOURLY WEATHER ROUNDUP
NATIONAL WEATHER SERVICE GOODLAND KS
1100 PM MST THU JAN 29 2015

...OFFICIAL OBSERVATIONS...

CITY           SKY/WX    TMP DP  RH WIND       PRES   REMARKS
GOODLAND KS    MOCLDY    31  22  69 S10       30.45F
HILL CITY KS   CLEAR     18  12  77 W3        30.51S
IMPERIAL NEB   MOCLDY    25  17  72 S3        30.44F
MCCOOK NEB     PTCLDY    22  16  78 CALM      30.47F
AKRON CO       MOCLDY    33  17  51 S13       30.38F
BURLINGTON CO  MOCLDY    31  21  66 S14       30.44F
LIMON CO       MOCLDY    29  22  75 VRB7      30.40F
$$

...UNOFFICIAL OBSERVATIONS...

CITY           SKY/WX    TMP DP  RH WIND       PRES   REMARKS
COLBY KS       CLEAR     25  23  93 S5        30.48S
GOVE KS          N/A     19  32 100 MISG        N/A
NORTON KS      CLEAR     19  14  79 SW5       30.48F
SHARON SPRINGS   N/A     27  20  76 SW8         N/A
KIT CARSON CO    N/A     28  16  60 MISG        N/A
YUMA CO          N/A     28  18  66 S7          N/A
$$


USA.gov is the U.S. government's official web portal to all federal, state and local government web resources and services.